Tracking 30922 objects as of 2-Jul-2025
HD Live streaming from Space Station
objects crossing your sky now

PEGASUS R/B

Track PEGASUS R/B now!
10-day predictions


NORAD ID: 41892
Int'l Code: 2016-078J
Perigee: 425.6 km
Apogee: 437.2 km
Inclination: 34.9 °
Period: 93.1 minutes
Semi major axis: 6802 km
RCS: Unknown
Launch date: December 15, 2016
Source: United States (US)
Launch site: Pegasus launched from Eastern Range Air Space (ERAS)

Note: This is a ROCKET BODY
Your satellite tracking list
Your tracking list is empty




NASA's NSSDC Master Catalog

Two Line Element Set (TLE):
1 41892U 16078J   25182.71630891  .00015947  00000-0  30174-3 0  9993
2 41892  34.9374 346.3471 0008547 130.0274 230.1198 15.47436253474969
Source of the keplerian elements: AFSPC